This demonstration page uses our WeatherBlox Daily Observations layout. Learn more.

Left ArrowRight Arrow

36.17497, -115.13722

Hourly Observations for July 2, 2022

Temp ( °F °C ) Dew Point ( °F °C ) Humidity (%) Winds ( mph kmh ) Pressure ( in mb ) Visibility ( mi km ) Precip ( " mm )
12:53 am 00:53 Clear 94 34.4 35 1.7 13 13 SW 12 19 29.74 1007 10 16 0.00 0.00
1:53 am 01:53 Clear 92 33.3 34 1.1 13 13 SSW 10 17 29.74 1007 10 16 0.00 0.00
2:53 am 02:53 Clear 89 31.7 34 1.1 14 14 SSW 10 17 29.74 1007 10 16 0.00 0.00
3:53 am 03:53 Clear 83 28.3 34 1.1 17 17 WNW 6 9 29.76 1008 10 16 0.00 0.00
4:53 am 04:53 Clear 84 28.9 35 1.7 17 17 Calm 29.77 1008 10 16 0.00 0.00
5:53 am 05:53 Sunny 81 27.2 37 2.8 21 21 WNW 5 7 29.79 1009 10 16 0.00 0.00
6:53 am 06:53 Sunny 83 28.3 37 2.8 19 19 Calm 29.81 1009 10 16 0.00 0.00
7:53 am 07:53 Sunny 87 30.6 38 3.3 18 18 Calm 29.81 1009 10 16 0.00 0.00
8:53 am 08:53 Sunny 91 32.8 39 3.9 16 16 ESE 8 13 29.81 1009 10 16 0.00 0.00
9:53 am 09:53 Sunny 95 35 42 5.6 16 16 SE 15 24 29.79 1009 10 16 0.00 0.00
10:53 am 10:53 Sunny 98 36.7 42 5.6 15 15 SSE 18 30 29.78 1008 10 16 0.00 0.00
11:53 am 11:53 Sunny 101 38.3 39 3.9 12 12 S 18 30 29.77 1008 10 16 0.00 0.00
12:53 pm 12:53 Sunny 102 38.9 38 3.3 11 11 SSW 16 26 29.75 1008 10 16 0.00 0.00
1:53 pm 13:53 Sunny 102 38.9 37 2.8 10 10 SSW 14 22 29.73 1007 10 16 0.00 0.00
2:53 pm 14:53 Sunny 104 40 38 3.3 10 10 SSW 17 28 29.70 1006 10 16 0.00 0.00
3:53 pm 15:53 Sunny 103 39.4 38 3.3 11 11 SSW 13 20 29.69 1005 10 16 0.00 0.00
4:53 pm 16:53 Sunny 104 40 36 2.2 9 9 SW 22 35 29.66 1004 10 16 0.00 0.00
5:53 pm 17:53 Sunny 103 39.4 35 1.7 9 9 SW 22 35 29.65 1004 10 16 0.00 0.00
6:53 pm 18:53 Sunny 101 38.3 33 0.6 9 9 WSW 18 30 29.65 1004 10 16 0.00 0.00
7:53 pm 19:53 Sunny 99 37.2 40 4.4 13 13 SW 14 22 29.65 1004 10 16 0.00 0.00
8:53 pm 20:53 Clear 97 36.1 40 4.4 14 14 SW 10 17 29.66 1004 10 16 0.00 0.00
9:53 pm 21:53 Clear 96 35.6 40 4.4 14 14 WSW 10 17 29.67 1005 10 16 0.00 0.00
10:53 pm 22:53 Clear 93 33.9 35 1.7 13 13 WSW 14 22 29.69 1006 10 16 0.00 0.00
11:53 pm 23:53 Clear 92 33.3 35 1.7 13 13 SW 9 15 29.70 1006 10 16 0.00 0.00

Powered by AerisWeather